Olathe New Century, KS

1:35 AM CDT on April 30, 2017 (GMT -0500)
New Century Aircenter

Weather History for KIXD - July, 2013

Change the Weather History Date:

Monday, July 8, 2013

  Actual Average Record
Temperature  
Mean Temperature 84 °F -  
Max Temperature 97 °F 86 °F 98 °F (2002)
Min Temperature 73 °F 66 °F 60 °F (2006)
Cooling Degree Days 19    
Growing Degree Days 34 (Base 50)    
Moisture  
Dew Point 65 °F    
Average Humidity 55    
Maximum Humidity 71    
Minimum Humidity 37    
Precipitation  
Precipitation 0.00 in - - ()
Sea Level Pressure  
Sea Level Pressure 29.99 in    
Wind  
Wind Speed 9 mph (South)    
Max Wind Speed 15 mph    
Max Gust Speed 22 mph    
Visibility 10 miles    
Events      
Averages and records for this station are not official NWS values.
T = Trace of Precipitation, MM = Missing Value Source: NWS Daily Summary

Daily Weather History Graph

Daily Weather History Graph

Search for Another Location

Airport or City:

Trip Planner

Search our weather history database for the weather conditions in past years. The results will help you decide how hot, cold, wet, or windy it might be!

Date:

Astronomy

Jul. 08, 2013 Rise Set
Actual Time 6:02 AM CDT 8:46 PM CDT
Civil Twilight 5:30 AM CDT 9:18 PM CDT
Nautical Twilight 4:51 AM CDT 9:57 PM CDT
Astronomical Twilight 4:06 AM CDT 10:42 PM CDT
Moon 6:31 AM CDT (7/8) 8:51 PM CDT (7/8)
Length of Visible Light 15h 47m
Length of Day
14h 44m
New Moon, 0% of the Moon is Illuminated
Jul 8
New Moon
Jul 15
First Quarter
Jul 22
Full
Jul 29
Last Quarter
Aug 6
New

Hourly Weather History & Observations

Time (CDT) Temp. Heat Index Dew Point Humidity Pressure Visibility Wind Dir Wind Speed Gust Speed Precip Events Conditions
12:53 AM 77.0 °F - 64.0 °F 64% 29.97 in 10.0 mi South 8.1 mph - N/A   Clear
1:53 AM 75.9 °F - 64.0 °F 67% 29.97 in 10.0 mi South 6.9 mph - N/A   Clear
2:53 AM 75.9 °F - 64.0 °F 67% 29.97 in 10.0 mi South 9.2 mph - N/A   Clear
3:53 AM 75.9 °F - 63.0 °F 64% 29.99 in 10.0 mi SSW 8.1 mph - N/A   Clear
4:53 AM 75.9 °F - 63.0 °F 64% 30.00 in 10.0 mi SSW 8.1 mph - N/A   Clear
5:53 AM 73.9 °F - 63.0 °F 68% 29.99 in 10.0 mi SSW 6.9 mph - N/A   Clear
6:53 AM 75.0 °F - 64.0 °F 69% 29.99 in 10.0 mi South 6.9 mph - N/A   Clear
7:53 AM 75.0 °F - 64.9 °F 71% 30.00 in 10.0 mi South 5.8 mph - N/A   Clear
8:53 AM 79.0 °F - 64.9 °F 62% 30.01 in 10.0 mi SSW 11.5 mph - N/A   Clear
9:53 AM 82.0 °F 84.1 °F 66.0 °F 58% 30.01 in 10.0 mi SSW 15.0 mph - N/A   Clear
10:53 AM 84.9 °F 87.1 °F 66.0 °F 53% 30.02 in 10.0 mi SSW 15.0 mph 21.9 mph N/A   Clear
11:53 AM 87.1 °F 89.9 °F 66.9 °F 51% 30.02 in 10.0 mi SSW 10.4 mph - N/A   Clear
12:53 PM 91.0 °F 94.3 °F 66.9 °F 45% 30.01 in 10.0 mi SSW 11.5 mph - N/A   Clear
1:53 PM 93.9 °F 98.6 °F 68.0 °F 43% 29.99 in 10.0 mi SSE 12.7 mph 18.4 mph N/A   Clear
2:53 PM 95.0 °F 99.0 °F 66.9 °F 40% 29.98 in 10.0 mi South 13.8 mph 20.7 mph N/A   Clear
3:53 PM 93.9 °F 96.1 °F 64.9 °F 38% 29.97 in 10.0 mi South 11.5 mph 19.6 mph N/A   Clear
4:53 PM 95.0 °F 99.0 °F 66.9 °F 40% 29.97 in 10.0 mi South 10.4 mph - N/A   Clear
5:53 PM 93.9 °F 95.6 °F 64.0 °F 37% 29.96 in 10.0 mi South 10.4 mph 20.7 mph N/A   Clear
6:53 PM 91.9 °F 94.5 °F 66.0 °F 42% 29.96 in 10.0 mi South 9.2 mph 17.3 mph N/A   Clear
7:53 PM 89.1 °F 92.1 °F 66.9 °F 48% 29.96 in 10.0 mi South 8.1 mph - N/A   Clear
8:53 PM 84.0 °F 86.5 °F 66.9 °F 56% 29.96 in 7.0 mi SSE 5.8 mph - N/A   Clear
9:53 PM 82.9 °F 85.4 °F 66.9 °F 58% 29.98 in 10.0 mi South 8.1 mph - N/A   Clear
10:53 PM 81.0 °F 83.3 °F 66.9 °F 62% 29.99 in 10.0 mi South 6.9 mph - N/A   Clear
11:53 PM 81.0 °F 83.3 °F 66.9 °F 62% 29.98 in 10.0 mi South 6.9 mph - N/A   Clear